This is the latest recevied weather packets stored in our database for station/object K1BES. If no packets are shown the sender has not sent any weather packets the latest 10 day(s).
| Time | Temp. | Humidity | Pressure | Rain* | Wind** | Luminosity | Snow |
|---|---|---|---|---|---|---|---|
| 1778014117 | 27.78° C | 71% | 1016.2 hPa | 0 mm | - | 178 W/m² | - |
| 1778013814 | 27.78° C | 71% | 1016.2 hPa | 0 mm | - | 629 W/m² | - |
| 1778013511 | 27.78° C | 70% | 1016.3 hPa | 0 mm | - | 636 W/m² | - |
| 1778013208 | 27.78° C | 71% | 1016.2 hPa | 0 mm | - | 225 W/m² | - |
| 1778012904 | 27.78° C | 71% | 1016.3 hPa | 0 mm | - | 174 W/m² | - |
| 1778012600 | 27.78° C | 71% | 1016.3 hPa | 0 mm | - | 84 W/m² | - |
| 1778012297 | 27.78° C | 71% | 1016.5 hPa | 0 mm | - | 105 W/m² | - |
| 1778011995 | 27.78° C | 70% | 1016.5 hPa | 0 mm | - | 113 W/m² | - |
| 1778011693 | 27.78° C | 69% | 1016.6 hPa | 0 mm | - | 108 W/m² | - |
| 1778011390 | 28.33° C | 68% | 1016.5 hPa | 0 mm | - | 198 W/m² | - |
| 1778011084 | 28.33° C | 69% | 1016.5 hPa | 0 mm | - | 803 W/m² | - |
| 1778010782 | 28.33° C | 69% | 1016.5 hPa | 0 mm | - | 783 W/m² | - |
| 1778010479 | 28.33° C | 68% | 1016.6 hPa | 0 mm | - | 711 W/m² | - |
| 1778010176 | 28.89° C | 68% | 1016.4 hPa | 0 mm | - | 776 W/m² | - |
| 1778009877 | 28.89° C | 67% | 1016.3 hPa | 0 mm | - | 792 W/m² | - |
| 1778009575 | 28.89° C | 68% | 1016.3 hPa | 0 mm | - | 792 W/m² | - |
| 1778009273 | 28.33° C | 69% | 1016.5 hPa | 0 mm | - | 786 W/m² | - |
| 1778008971 | 28.33° C | 68% | 1016.5 hPa | 0 mm | - | 794 W/m² | - |
| 1778008668 | 28.89° C | 67% | 1016.6 hPa | 0 mm | - | 832 W/m² | - |
| 1778008367 | 28.89° C | 68% | 1016.5 hPa | 0 mm | - | 784 W/m² | - |
| 1778008062 | 28.89° C | 68% | 1016.4 hPa | 0 mm | - | 821 W/m² | - |
| 1778007757 | 28.89° C | 66% | 1016.5 hPa | 0 mm | - | 831 W/m² | - |
| 1778007454 | 28.89° C | 65% | 1016.6 hPa | 0 mm | - | 838 W/m² | - |
| 1778007150 | 28.89° C | 67% | 1016.6 hPa | 0 mm | - | 891 W/m² | - |
| 1778006847 | 28.89° C | 66% | 1016.7 hPa | 0 mm | - | 880 W/m² | - |
* Rain latest hour (hover to see other rain measurements)
** Current wind speed in m/s (hover to see current wind gust speed)